Redmond, OR

9:12 PM PDT on August 17, 2017 (GMT -0700)
Roberts Field Airport

Weather History for KRDM - October, 2014

Change the Weather History Date:

Wednesday, October 15, 2014

  Actual Average Record
Temperature  
Mean Temperature 51 °F 48 °F  
Max Temperature 59 °F 64 °F 88 °F (1961)
Min Temperature 43 °F 31 °F 17 °F (2013)
Degree Days  
Heating Degree Days 14 17  
Month to date heating degree days 136 225  
Since 1 July heating degree days 396 624  
Cooling Degree Days 0 0  
Month to date cooling degree days 0 0  
Year to date cooling degree days 311 222  
Moisture  
Dew Point 36 °F    
Average Humidity 65    
Maximum Humidity 93    
Minimum Humidity 36    
Precipitation  
Precipitation 0.12 in 0.02 in 0.91 in (2012)
Month to date precipitation 0.12 0.26  
Year to date precipitation 5.54 6.40  
Sea Level Pressure  
Sea Level Pressure 29.81 in    
Wind  
Wind Speed 9 mph (South)    
Max Wind Speed 25 mph    
Max Gust Speed 33 mph    
Visibility 10 miles    
Events Rain    
T = Trace of Precipitation, MM = Missing Value Source: NWS Daily Summary

Daily Weather History Graph

Daily Weather History Graph

Search for Another Location

Airport or City:

Trip Planner

Search our weather history database for the weather conditions in past years. The results will help you decide how hot, cold, wet, or windy it might be!

Date:

Astronomy

Oct. 15, 2014 Rise Set
Actual Time 7:19 AM PDT 6:20 PM PDT
Civil Twilight 6:50 AM PDT 6:49 PM PDT
Nautical Twilight 6:16 AM PDT 7:23 PM PDT
Astronomical Twilight 5:43 AM PDT 7:56 PM PDT
Moon No Moon Rise 2:09 PM PDT (10/15)
Length of Visible Light 11h 59m
Length of Day
11h 00m
Waning Gibbous, 50% of the Moon is Illuminated
Oct 15
Waning Gibbous
Oct 15
Last Quarter
Oct 23
New
Oct 30
First Quarter
Nov 6
Full

Hourly Weather History & Observations

Time (PDT) Temp. Windchill Dew Point Humidity Pressure Visibility Wind Dir Wind Speed Gust Speed Precip Events Conditions
12:56 AM 46.0 °F 43.9 °F 43.0 °F 89% 29.58 in 10.0 mi East 4.6 mph - N/A   Overcast
1:56 AM 46.9 °F - 43.0 °F 86% 29.57 in 10.0 mi Calm Calm - N/A   Overcast
2:56 AM 46.9 °F - 44.1 °F 90% 29.56 in 10.0 mi NNE 3.5 mph - 0.00 in   Overcast
3:56 AM 46.9 °F - 45.0 °F 93% 29.59 in 8.0 mi SE 3.5 mph - 0.09 in Rain Light Rain
4:56 AM 46.0 °F 42.5 °F 44.1 °F 93% 29.60 in 10.0 mi SE 6.9 mph - 0.03 in Rain Light Rain
5:56 AM 45.0 °F 40.1 °F 39.9 °F 82% 29.62 in 10.0 mi SSE 9.2 mph - 0.00 in   Mostly Cloudy
6:54 AM 44.6 °F 38.4 °F 37.4 °F 76% 29.65 in 10.0 mi South 12.7 mph - N/A   Clear
6:56 AM 45.0 °F 38.5 °F 37.0 °F 74% 29.64 in 10.0 mi South 13.8 mph - N/A   Clear
7:56 AM 46.0 °F 39.9 °F 37.0 °F 71% 29.68 in 10.0 mi South 13.8 mph 24.2 mph N/A   Overcast
8:56 AM 46.9 °F - 37.0 °F 68% 29.73 in 10.0 mi South 16.1 mph - 0.00 in   Scattered Clouds
9:56 AM 50.0 °F - 36.0 °F 59% 29.75 in 10.0 mi SSW 13.8 mph - N/A   Partly Cloudy
10:56 AM 52.0 °F - 36.0 °F 54% 29.79 in 10.0 mi SW 10.4 mph 17.3 mph N/A   Mostly Cloudy
11:56 AM 55.9 °F - 35.1 °F 45% 29.81 in 10.0 mi South 12.7 mph - N/A   Mostly Cloudy
12:56 PM 57.0 °F - 32.0 °F 39% 29.83 in 10.0 mi WSW 10.4 mph - N/A   Mostly Cloudy
1:56 PM 57.9 °F - 30.9 °F 36% 29.84 in 10.0 mi SW 19.6 mph - N/A   Scattered Clouds
2:56 PM 57.0 °F - 30.0 °F 36% 29.88 in 10.0 mi SW 11.5 mph - N/A   Mostly Cloudy
3:56 PM 57.0 °F - 30.0 °F 36% 29.91 in 10.0 mi SW 17.3 mph 25.3 mph N/A   Partly Cloudy
4:56 PM 54.0 °F - 32.0 °F 43% 29.95 in 10.0 mi SSW 9.2 mph 20.7 mph N/A   Mostly Cloudy
5:56 PM 53.1 °F - 33.1 °F 47% 29.97 in 10.0 mi SSW 11.5 mph - N/A   Scattered Clouds
6:56 PM 50.0 °F - 33.1 °F 52% 30.00 in 10.0 mi SE 4.6 mph - N/A   Partly Cloudy
7:56 PM 48.0 °F - 34.0 °F 58% 30.03 in 10.0 mi South 4.6 mph - N/A   Mostly Cloudy
8:56 PM 45.0 °F 43.5 °F 34.0 °F 65% 30.05 in 10.0 mi South 3.5 mph - N/A   Clear
9:56 PM 44.1 °F 41.5 °F 35.1 °F 71% 30.06 in 10.0 mi SE 4.6 mph - N/A   Mostly Cloudy
10:56 PM 46.9 °F - 35.1 °F 63% 30.05 in 10.0 mi SSE 9.2 mph - N/A   Clear
11:56 PM 46.9 °F - 34.0 °F 61% 30.05 in 10.0 mi South 9.2 mph - N/A   Clear